COSMOS 2251 DEB, 47062

Orbit data source: Space-Track

COSMOS 2251 DEB, 47062 is space debris in LEO originally from a launch on Wed, 16 Jun 1993 UTC launched from the Plesetsk Missile And Space Complex (PKMTR). The debris from Iridium 33, an American commercial communications satellite, has been tracked extensively since its accidental collision with the defunct Russian satellite Cosmos 2251 in 2009. This event, occurring at high speed in low Earth orbit (LEO), generated thousands of pieces of space debris, significantly increasing the risk of further collisions. The Iridium 33 debris cloud has impacted space traffic management and orbital debris mitigation strategies, making it a subject of ongoing study in space situational awareness.

Loading next visibility...
Identifier
47062, 1993-036BXS
Orbit
LEO
Country
Flag of CISCIS
Related business
Manufacturer
Unknown
Mission
Spacecraft
Bus & Motor
Unknown
Mass
Unknown
Launch date (UTC)
1993-06-16 (33 years ago)
Launch vehicle
Unknown
Launch site
Plesetsk Missile And Space Complex (PKMTR)
Object type
Payload
Rocket body
Debris
Shape & HBR
Unknown shape, 0.1 m
Radar Cross Section
Small (<0.1 m²)

Expand to show TLE details & history
Last TLE update: 3 days ago

TLE from 3 days ago
0 COSMOS 2251 DEB
1 47062U 93036BXS 26170.18082006  .00001173  00000-0  89670-3 0  9996
2 47062  74.0800 127.2536 0324556 209.4228 168.7885 13.72430908581877
Epoch: 2026-06-19T04:20Z
TLE epoch observation values (Epoch: 2026-06-19T04:20:22.853Z)
Latitude
18.15306°
Longitude
160.08417°
Altitude
1,227.766 km
Speed
7.126 km/s
True Right ascension
08h 50m 22s
True Declination
18° 03' 28"
Sunlit
Object was in daylight at epoch
Visualization orbit readout
Latitude
Unknown
Longitude
Unknown
Altitude
Unknown
Speed
Unknown
Apparent Right ascension
Unknown
Apparent Declination
Unknown
Sunlit
N/A
Visualization observer readout
Local Sidereal Time
21:56:18
Azimuth
Unknown
Elevation
Unknown
Doppler factor
Unknown
Orbital elements
Apogee altitude
1,227.634 km
Perigee altitude
749.454 km
Semi-major axis
7,366.681 km
Eccentricity
0.03246
Inclination
74.08°
RAAN
127.2536°
Arg. of periapsis
209.4228°
True anomaly
169.48388°
Mean anomaly
168.7885°
Eccentric anomaly
169.1389°
Mean motion
3.4327 °/min
Orbital period
104.87 mins
BSTAR
0.0008967

Documentation

Showing up to 5 results
|